{"data":{"norad_id":55331,"intl_designator":"2023-013A","name":"STARLINK-5492","alt_names":[],"object_type":"PAYLOAD","status":"ACTIVE","operator":null,"country":"US","launch_date":"2023-01-26","launch_site_code":"AFETR","launch_vehicle":null,"mission":null,"orbit_class":"UNKNOWN","rcs_meters":null,"size_class":null,"mass_kg":null,"dimensions":null,"purposes":["comms"],"wikipedia_slug":null,"has_3d_model":false,"image_url":null,"decayed_at":null,"tle_current":{"epoch":"2026-09-20T08:28:06.812832Z","epoch_age_seconds":109265,"freshness":"FRESH","line1":"1 55331U 23013A   26263.35285663 -.00000155  00000+0  38749-5 0  9990","line2":"2 55331  43.0020 284.1459 0000990 270.0855  89.9883 15.27575722202525","mean_motion":15.27575722,"eccentricity":9.9e-5,"inclination_deg":43.002,"raan_deg":284.1459,"arg_perigee_deg":270.0855,"mean_anomaly_deg":89.9883,"bstar":3.8749e-6,"rev_number":20252,"period_min":94.267012709174,"perigee_km":482.38264724886,"apogee_km":483.74116463224,"semimajor_km":6861.1989059406,"source":"CELESTRAK","updated_at":"2026-09-21T09:00:33.177376Z"}}}